Location: Riverside Cemetery
(38.3047°N, 99.7773°W)
Time: 07:02:35
(UTC+00:00)

Cosmos 2208 Rocket - Pass Details

Date: 19 September 2020
Orbit: 755 x 805 km, 74.0° (Epoch: 19 October)

Event Time Altitude Azimuth Distance (km) Brightness Sun altitude
Rises 11:36:43 0° 196° (SSW) 3,244 7.0 -10.2°
Reaches altitude 10° 11:39:06 10° 196° (SSW) 2,312 6.2 -9.7°
Maximum altitude 11:44:21 88° 111° (ESE) 772 4.1 -8.7°
Drops below altitude 10° 11:49:35 10° 19° (NNE) 2,298 6.8 -7.7°
Sets 11:51:56 0° 19° (NNE) 3,223 7.6 -7.2°
